Location: *
(50.0228°S, 177.2688°W)
Time: 19:31:02
(UTC+00:00)

In-Cosmos 22 - Pass Details

Date: 07 April 2020
Orbit: 784 x 877 km, 81.2° (Epoch: 03 June)

Event Time Altitude Azimuth Distance (km) Brightness Sun altitude
Rises 05:46:18 0° 11° (N) 3,277 7.2 -4.6°
Reaches altitude 10° 05:48:45 10° 17° (NNE) 2,354 6.4 -5.0°
Maximum altitude 05:53:43 43° 87° (E) 1,115 4.4 -5.8°
Drops below altitude 10° 05:58:47 10° 156° (SSE) 2,396 6.3 -6.6°
Sets 06:01:17 0° 162° (SSE) 3,342 7.1 -7.0°
